Weather History for Montgomery, AL

Change the Weather History Date:

Sunday, September 9, 2012

  Actual Average Record
Temperature  
Mean Temperature 72 °F 78 °F  
Max Temperature 84 °F 89 °F 101 °F (1925)
Min Temperature 60 °F 68 °F 55 °F (2011)
Degree Days  
Heating Degree Days 0 0  
Month to date heating degree days 0 0  
Since 1 July heating degree days 0 0  
Cooling Degree Days 7 13  
Month to date cooling degree days 137 128  
Year to date cooling degree days 2303 1917  
Growing Degree Days 23 (Base 50)    
Moisture  
Dew Point 58 °F    
Average Humidity 64    
Maximum Humidity 93    
Minimum Humidity 34    
Precipitation  
Precipitation 0.00 in 0.13 in 1.49 in (1935)
Month to date precipitation 3.04 1.26  
Year to date precipitation 32.05 37.97  
Sea Level Pressure  
Sea Level Pressure 29.97 in    
Wind  
Wind Speed 6 mph (NNW)    
Max Wind Speed 14 mph    
Max Gust Speed 20 mph    
Visibility 10 miles    
Events      
T = Trace of Precipitation, MM = Missing Value Source: NWS Daily Summary

Daily Weather History Graph

Daily Weather History Graph

Search for Another Location

Airport:

Trip Planner

Search our weather history database for the weather conditions in past years. The results will help you decide how hot, cold, wet, or windy it might be!

Date:

Astronomy

Sep. 09, 2012 Rise Set
Actual Time 6:26 AM CDT 6:58 PM CDT
Civil Twilight 6:01 AM CDT 7:23 PM CDT
Nautical Twilight 5:32 AM CDT 7:52 PM CDT
Astronomical Twilight 5:02 AM CDT 8:22 PM CDT
Moon 12:09 AM CDT (9/9) 2:29 PM CDT (9/9)
Length of Visible Light 13h 22m
Length of Day
12h 32m
Last Quarter, 39% of the Moon is Illuminated
Sep 9
Last Quarter
Sep 15
New
Sep 22
First Quarter
Sep 29
Full
Oct 8
Last Quarter

Hourly Weather History & Observations

Time (CDT) Temp. Heat Index Dew Point Humidity Pressure Visibility Wind Dir Wind Speed Gust Speed Precip Events Conditions
12:53 AM 70.0 °F - 64.9 °F 84% 29.91 in 10.0 mi NNW 9.2 mph - N/A   Clear
1:53 AM 69.1 °F - 63.0 °F 81% 29.91 in 10.0 mi NNW 6.9 mph - N/A   Clear
2:53 AM 66.9 °F - 62.1 °F 84% 29.91 in 10.0 mi NNW 8.1 mph - N/A   Clear
3:53 AM 66.0 °F - 62.1 °F 87% 29.93 in 10.0 mi NNW 5.8 mph - N/A   Clear
4:53 AM 64.9 °F - 61.0 °F 87% 29.94 in 10.0 mi NNW 4.6 mph - N/A   Clear
5:53 AM 63.0 °F - 60.1 °F 90% 29.95 in 10.0 mi NW 3.5 mph - N/A   Clear
6:53 AM 63.0 °F - 59.0 °F 87% 29.97 in 10.0 mi NNW 4.6 mph - N/A   Clear
7:53 AM 68.0 °F - 60.1 °F 76% 29.99 in 10.0 mi NNW 5.8 mph - N/A   Clear
8:53 AM 72.0 °F - 57.9 °F 61% 29.99 in 10.0 mi North 8.1 mph - N/A   Clear
9:53 AM 75.9 °F - 57.0 °F 52% 30.00 in 10.0 mi North 8.1 mph - N/A   Clear
10:53 AM 79.0 °F - 55.9 °F 45% 30.01 in 10.0 mi North 9.2 mph - N/A   Clear
11:53 AM 80.1 °F 80.4 °F 57.0 °F 45% 30.00 in 10.0 mi NNW 6.9 mph - N/A   Clear
12:53 PM 81.0 °F 81.0 °F 57.0 °F 44% 29.98 in 10.0 mi NW 9.2 mph - N/A   Clear
1:53 PM 82.9 °F 82.0 °F 55.0 °F 38% 29.96 in 10.0 mi NNW 12.7 mph 18.4 mph N/A   Clear
2:53 PM 82.4 °F 81.7 °F 55.4 °F 39% 29.96 in 10.0 mi NNW 10.4 mph 17.3 mph N/A   Clear
3:53 PM 84.0 °F 82.6 °F 54.0 °F 35% 29.95 in 10.0 mi NNW 10.4 mph - N/A   Clear
4:53 PM 84.0 °F 82.9 °F 55.0 °F 37% 29.96 in 10.0 mi NNW 8.1 mph - N/A   Clear
5:53 PM 81.0 °F 80.7 °F 55.0 °F 41% 29.96 in 10.0 mi North 8.1 mph - N/A   Clear
6:53 PM 75.9 °F - 57.0 °F 52% 29.98 in 10.0 mi North 4.6 mph - N/A   Clear
7:53 PM 71.1 °F - 57.0 °F 61% 29.99 in 10.0 mi NNW 3.5 mph - N/A   Clear
8:53 PM 69.1 °F - 57.9 °F 68% 30.01 in 10.0 mi NW 4.6 mph - N/A   Clear
9:53 PM 66.9 °F - 57.9 °F 73% 30.02 in 10.0 mi Calm Calm - N/A   Clear
10:53 PM 64.9 °F - 57.9 °F 78% 30.03 in 10.0 mi NNW 4.6 mph - N/A   Clear
11:53 PM 63.0 °F - 57.0 °F 81% 30.03 in 10.0 mi Calm Calm - N/A   Clear